Location: Newark
(44.3290°N, 23.7757°E)
Time: 06:58:51
(UTC+00:00)

Tiangong - Visible Passes

Search period start: 28 January 2022 00:00
Search period end: 07 February 2022 00:00
Orbit: 381 x 387 km, 41.5° (Epoch: 27 January)

Date Brightness Start Highest point End Pass type
(mag) Time Alt. Az. Time Alt. Az. Time Alt. Az.
28 Jan 2.8 17:26:03 10° SW 17:28:04 26° SSW 17:28:04 26° SSW visible
29 Jan 2.8 16:26:42 10° SSW 16:29:14 22° SSE 16:31:12 13° ESE visible
29 Jan 4.1 18:02:38 10° WSW 18:03:25 16° WSW 18:03:25 16° WSW visible
30 Jan 1.8 17:02:56 10° WSW 17:05:57 40° SSE 17:06:30 36° SE visible
31 Jan 2.4 16:03:20 10° SW 16:06:11 31° SSE 16:09:03 10° E visible
31 Jan 2.6 17:39:39 10° WSW 17:41:44 34° SW 17:41:44 34° SW visible
01 Feb 1.7 16:39:50 10° WSW 16:42:55 47° S 16:44:45 21° ESE visible
01 Feb 4.4 18:16:31 10° W 18:16:57 13° W 18:16:57 13° W visible
02 Feb 1.6 17:16:36 10° W 17:19:40 47° S 17:19:57 45° SSE visible
03 Feb 1.7 16:16:42 10° WSW 16:19:47 50° S 16:22:53 10° ESE visible
03 Feb 3.4 17:53:29 10° W 17:55:10 23° WSW 17:55:10 23° WSW visible
04 Feb 2.1 16:53:28 10° W 16:56:29 40° S 16:58:13 20° SE visible
05 Feb 3.0 17:30:28 10° WSW 17:33:00 22° SSW 17:33:32 21° S visible
06 Feb 2.7 16:30:16 10° W 16:33:07 30° SSW 16:35:58 10° SE visible
